Temp_Advection
nan nan nan nan nan nan nan nan nan nan nan nan nan nan nan nan nan nan nan nan nan nan nan nan nan nan nan nan nan nan nan nan nan
nan 1 -0 0 0 1 0 0 0 0 0 0 -0 -0 -0 -0 -0 0 0 0 -0 -0 -0 -0 -0 0 0 -0 -0 -0 -0 -0 nan
nan -0 0 0 -0 0 0 0 0 -0 0 0 -0 -0 -0 -0 -0 0 0 -0 -0 -0 -0 -0 -0 -0 -0 -0 -0 -0 -0 -0 nan
nan -0 -0 0 0 0 0 0 0 -0 -0 -0 0 -0 -0 -0 -0 0 0 0 -0 -0 -0 -0 -0 -0 -0 -0 -0 -0 -0 -0 nan
nan -0 -0 -0 0 0 0 0 0 0 -0 -0 -0 -0 -0 -0 -0 0 0 0 -0 -0 -0 -0 -0 -0 -0 -0 -0 -0 -0 -0 nan
nan -0 -1 -1 0 0 0 0 0 0 0 -0 0 -0 -0 -0 0 -0 -0 -0 -0 -0 -0 -0 -0 -0 -0 -0 -0 -0 -0 -0 nan
nan -1 -0 -0 0 0 0 0 0 0 0 0 0 -0 0 0 0 -0 -0 0 -0 -0 -0 -0 -0 -0 -0 -0 -0 -0 -0 -0 nan
nan 0 0 0 0 0 0 0 0 0 0 0 0 0 0 0 0 -0 -0 0 0 -0 -0 -0 -0 0 0 -0 -0 -0 -0 -0 nan
nan 1 1 1 0 0 0 0 0 -0 0 0 -0 0 -0 -0 -0 -0 -0 -0 0 -0 -0 -0 -0 -0 -0 0 -0 -0 -0 -0 nan
nan 0 1 0 0 -0 0 -0 -0 0 0 -0 -0 -0 -0 -0 0 0 0 0 0 -0 -0 -0 -0 0 0 -0 -0 0 -0 -0 nan
nan 0 -0 -0 -0 -0 -0 0 -0 0 -0 -0 -0 -0 0 0 0 0 0 0 0 0 -0 -0 0 0 0 -0 -0 -0 -0 -0 nan
nan -0 -1 -0 -0 -0 0 0 -0 -0 -0 -0 -0 -0 -0 -0 -0 0 0 0 0 -0 -0 -0 -0 0 0 0 0 0 -0 -0 nan
nan -0 -0 0 0 0 0 0 -0 -0 -0 -0 -0 0 -0 -0 -0 0 0 0 0 0 0 -0 -0 -0 0 0 0 0 -0 -0 nan
nan 0 0 0 0 0 0 -0 -0 -0 -0 -0 0 0 -0 0 0 0 0 0 0 0 0 -0 -0 0 0 0 0 0 -0 -0 nan
nan 0 0 0 0 0 0 -0 -0 -0 0 0 0 -0 0 0 0 0 0 -0 -0 0 0 0 -0 -0 0 0 0 -0 0 -0 nan
nan 0 0 0 0 0 -0 -0 0 0 0 -0 -0 -0 0 0 0 0 0 -0 -0 -0 -0 0 0 -0 0 0 0 0 0 0 nan
nan 0 0 0 -0 -0 0 0 0 -0 0 0 0 -0 -0 0 0 0 0 0 -0 -0 -0 0 0 0 -0 0 0 0 0 0 nan
nan 0 0 0 0 0 0 -0 0 0 0 0 0 -0 0 0 0 0 -0 0 0 -0 -0 -0 0 0 0 0 0 0 0 0 nan
nan -0 0 0 0 0 -0 0 0 0 0 -0 0 0 0 -0 -0 0 0 -0 0 0 -0 -0 -0 0 0 0 0 0 0 0 nan
nan nan nan nan nan nan nan nan nan nan nan nan nan nan nan nan nan nan nan nan nan nan nan nan nan nan nan nan nan nan nan nan nan
Wind_Speed
18 22 22 21 20 20 20 18 16 15 15 14 13 12 12 14 10 10 9 9 10 11 10 9 8 7 7 6 4 4 4 5 6
22 23 23 21 19 21 18 16 14 13 12 12 11 11 11 8 9 8 6 8 10 10 10 9 9 8 7 6 6 6 7 7 7
24 23 22 20 20 19 17 14 12 11 10 9 9 9 10 7 7 6 5 7 8 9 8 8 8 7 7 7 7 7 7 7 7
24 23 21 19 20 18 16 13 11 9 8 7 6 6 8 9 4 5 2 5 6 6 7 7 7 7 7 7 8 8 8 7 7
24 22 20 18 18 17 14 11 9 7 5 4 4 4 6 4 3 3 1 2 4 5 5 6 6 7 8 8 9 9 9 9 8
23 21 21 19 17 15 13 10 7 5 4 3 2 2 4 1 2 2 2 1 2 3 4 5 6 7 9 9 10 9 9 9 9
16 21 20 18 16 14 11 8 6 4 1 2 2 2 3 1 2 6 3 2 2 3 4 5 8 9 10 9 10 9 9 9 9
20 21 20 17 15 12 10 8 6 3 6 5 1 5 3 1 3 5 4 4 4 4 4 5 8 11 10 9 9 9 9 9 10
14 16 17 14 13 7 7 5 6 7 7 5 4 4 3 2 4 7 7 6 5 5 6 7 7 11 14 12 12 10 8 10 11
15 13 14 12 11 11 10 9 8 6 6 6 5 4 4 4 4 4 9 8 7 8 8 8 10 12 12 11 12 12 10 11 11
15 13 12 12 12 11 10 8 8 7 7 6 6 6 5 5 5 4 8 12 12 11 9 9 12 13 14 14 10 11 8 10 12
16 13 13 12 12 10 10 8 9 8 8 7 6 6 5 6 5 7 6 11 12 13 14 14 13 14 16 14 11 7 6 9 12
16 15 13 11 11 11 9 9 9 8 7 6 6 6 6 6 7 7 8 8 9 12 13 17 16 14 13 14 11 7 7 9 11
17 16 14 13 12 11 11 10 9 8 8 6 7 9 6 7 7 7 9 11 13 13 12 15 14 13 12 12 15 10 10 10 12
20 16 14 12 12 11 11 11 10 9 9 10 7 7 8 8 8 9 8 8 12 10 8 9 11 10 9 13 14 12 11 10 13
17 17 13 14 13 11 12 11 12 12 12 9 7 8 8 8 12 8 3 8 8 9 10 8 8 9 9 15 16 15 14 11 12
17 17 16 15 15 15 14 13 14 15 11 8 7 5 3 7 7 7 8 6 9 11 11 10 8 10 10 12 16 16 16 14 13
17 16 17 20 21 19 18 18 21 15 13 9 4 2 4 4 8 8 8 6 8 10 12 13 11 13 9 12 14 16 15 14 14
16 18 17 17 17 22 24 23 20 17 11 7 6 8 8 2 5 8 11 14 10 12 12 12 14 15 14 13 15 15 16 15 14
12 12 13 18 20 16 18 25 30 13 14 10 8 7 6 7 8 11 8 12 14 16 12 15 14 16 16 17 17 17 16 16 16
Wind_Direction
161 155 147 151 140 141 137 132 127 121 116 111 106 102 101 87 85 70 91 89 85 80 79 79 78 74 68 57 39 19 356 344 347
155 156 152 144 149 143 144 138 131 125 121 115 110 103 97 90 86 85 83 85 82 79 76 73 69 65 57 45 33 20 12 7 3
161 160 152 152 152 150 149 144 137 131 124 119 116 109 101 77 87 92 79 81 80 76 73 68 63 55 48 39 29 23 18 16 9
160 160 157 159 157 156 152 148 143 137 133 127 118 110 104 103 106 85 29 70 73 68 62 54 47 39 30 20 14 10 7 7 10
164 163 161 163 163 160 160 159 156 152 146 141 128 112 95 90 89 98 101 66 63 55 47 36 27 17 8 2 359 357 356 357 359
167 166 169 170 170 168 173 174 173 169 165 168 169 133 86 97 168 213 279 339 25 32 35 26 14 5 355 350 346 344 345 348 348
163 175 176 178 180 183 188 190 190 188 212 203 196 113 236 195 210 239 277 295 330 358 13 13 359 357 354 352 355 351 348 342 336
184 179 180 183 185 194 199 205 207 183 197 219 214 220 217 216 245 270 297 298 309 326 338 354 348 333 340 345 348 345 344 345 342
172 181 180 183 189 186 197 215 217 218 216 214 209 240 223 237 262 279 301 300 302 314 321 325 330 333 323 334 336 338 343 338 340
175 177 181 182 190 200 208 208 223 223 222 225 224 231 251 259 262 270 300 306 305 306 307 318 321 308 308 316 326 329 340 344 343
176 178 184 194 206 206 209 213 211 214 220 225 234 234 241 246 265 272 294 305 301 292 292 296 294 299 298 302 311 318 333 349 353
183 183 193 207 219 217 220 211 207 211 219 222 234 247 250 252 258 280 274 290 304 314 306 296 286 300 302 303 293 296 328 344 348
200 204 209 220 223 222 214 212 220 219 223 224 239 252 255 267 273 276 280 283 280 287 300 294 290 290 286 292 278 281 305 328 344
202 209 217 221 223 225 218 217 215 223 225 224 237 242 252 265 272 281 280 289 282 281 284 287 297 283 272 273 272 268 281 305 325
209 211 213 222 225 214 220 222 220 209 229 229 241 248 251 259 275 271 278 283 298 302 298 299 299 292 262 258 257 273 282 296 312
214 216 221 232 223 229 222 220 217 214 214 237 245 251 260 261 253 273 267 290 304 297 300 301 262 283 253 247 255 266 269 282 299
224 224 221 226 230 227 229 217 222 216 208 208 217 268 236 243 287 276 277 290 295 291 303 302 272 259 261 257 256 263 269 284 302
227 239 246 255 254 242 221 219 222 211 209 210 187 241 235 284 277 264 299 286 288 288 291 296 284 277 272 260 259 265 275 283 299
229 242 251 260 263 252 241 232 221 220 214 222 225 227 241 250 284 273 299 304 283 278 289 284 282 280 273 261 259 262 271 279 286
251 261 269 263 263 258 252 256 229 215 226 211 245 270 262 283 261 285 280 290 300 290 277 267 271 272 272 267 263 267 269 278 283
Height
1529 1531 1533 1534 1536 1538 1540 1541 1543 1544 1545 1546 1547 1547 1548 1548 1550 1550 1549 1549 1549 1548 1548 1548 1548 1547 1547 1547 1546 1545 1544 1543 1542
1529 1532 1534 1536 1538 1539 1541 1543 1545 1546 1547 1548 1548 1549 1549 1551 1552 1552 1551 1550 1550 1550 1550 1549 1549 1548 1548 1547 1547 1546 1545 1544 1543
1529 1532 1535 1538 1539 1541 1543 1544 1546 1547 1548 1549 1550 1550 1551 1554 1553 1553 1552 1552 1551 1551 1551 1551 1550 1550 1549 1549 1548 1547 1546 1545 1544
1530 1533 1536 1539 1540 1542 1544 1545 1547 1548 1549 1550 1551 1551 1552 1554 1554 1555 1553 1553 1553 1553 1552 1552 1552 1551 1551 1550 1549 1548 1547 1546 1544
1530 1533 1536 1539 1541 1543 1545 1546 1547 1548 1549 1551 1552 1552 1553 1555 1554 1555 1554 1554 1553 1553 1553 1553 1553 1553 1552 1551 1550 1549 1549 1547 1546
1531 1534 1536 1539 1542 1544 1545 1546 1548 1549 1550 1551 1552 1553 1554 1556 1556 1556 1554 1554 1554 1554 1554 1554 1553 1553 1552 1551 1550 1549 1549 1548 1548
1533 1533 1536 1539 1541 1543 1545 1547 1548 1549 1550 1551 1552 1553 1554 1555 1555 1555 1554 1554 1554 1554 1554 1554 1554 1553 1552 1551 1551 1550 1549 1548 1548
1532 1533 1536 1539 1542 1544 1545 1546 1547 1549 1551 1552 1553 1554 1554 1556 1555 1554 1554 1554 1553 1554 1554 1554 1553 1552 1552 1551 1551 1549 1549 1548 1547
1533 1534 1536 1538 1542 1544 1545 1547 1548 1548 1549 1551 1552 1552 1553 1554 1555 1554 1553 1553 1553 1553 1553 1553 1553 1553 1551 1551 1550 1550 1548 1548 1547
1533 1536 1536 1539 1541 1544 1544 1546 1547 1547 1549 1549 1550 1551 1553 1554 1554 1553 1553 1553 1552 1552 1552 1552 1552 1551 1550 1550 1550 1549 1548 1547 1546
1531 1534 1536 1538 1540 1542 1543 1544 1546 1547 1548 1549 1551 1552 1552 1552 1553 1553 1552 1550 1551 1550 1550 1550 1550 1549 1548 1548 1547 1547 1547 1546 1545
1530 1533 1534 1536 1538 1541 1542 1544 1545 1546 1548 1548 1550 1550 1551 1552 1552 1552 1552 1550 1548 1548 1548 1547 1547 1548 1547 1546 1545 1544 1545 1544 1544
1529 1531 1533 1535 1537 1538 1540 1542 1543 1544 1546 1547 1549 1549 1550 1550 1550 1551 1549 1550 1548 1546 1544 1543 1544 1544 1544 1544 1543 1543 1543 1543 1542
1527 1529 1531 1532 1534 1536 1539 1541 1542 1543 1545 1545 1547 1547 1548 1548 1548 1548 1548 1546 1545 1543 1542 1540 1539 1539 1540 1540 1540 1539 1539 1540 1540
1524 1527 1529 1532 1532 1533 1535 1539 1539 1541 1543 1543 1544 1545 1545 1546 1545 1544 1543 1543 1541 1539 1538 1538 1535 1536 1537 1537 1538 1537 1538 1538 1538
1522 1524 1527 1530 1531 1532 1533 1535 1537 1537 1539 1542 1542 1543 1542 1543 1541 1540 1540 1540 1539 1538 1537 1536 1535 1533 1534 1532 1534 1534 1535 1534 1534
1519 1521 1523 1527 1528 1529 1532 1532 1535 1535 1537 1539 1539 1540 1541 1539 1538 1537 1538 1537 1537 1537 1536 1534 1533 1531 1530 1533 1532 1532 1531 1531 1531
1516 1518 1520 1523 1525 1527 1527 1528 1531 1532 1533 1535 1537 1537 1538 1537 1537 1536 1534 1535 1536 1534 1534 1532 1531 1531 1528 1529 1531 1532 1531 1531 1531
1513 1515 1516 1519 1520 1522 1521 1523 1528 1530 1530 1532 1533 1534 1535 1535 1536 1534 1531 1531 1532 1531 1529 1530 1529 1529 1527 1526 1526 1526 1527 1527 1527
1509 1510 1512 1513 1516 1515 1516 1517 1522 1523 1526 1528 1528 1531 1532 1532 1533 1531 1531 1528 1528 1528 1525 1526 1525 1524 1524 1522 1521 1521 1521 1522 1523